Location: Marcé
(47.5801°N, 0.3280°W)
Time: 00:17:33
(UTC+01:00)

Vanguard 2 - Pass Details

Date: 03 December 2021
Orbit: 553 x 2936 km, 32.9° (Epoch: 20 January)

Event Time Altitude Azimuth Distance (km) Brightness Sun altitude
Rises 18:56:09 0° 256° (WSW) 3,947 13.0 -17.0°
Reaches altitude 10° 18:59:19 10° 241° (WSW) 3,318 11.9 -17.5°
Maximum altitude 19:05:26 21° 195° (SSW) 3,128 10.9 -18.5°
Drops below altitude 10° 19:13:46 10° 153° (SSE) 4,692 11.4 -19.9°
Sets 19:19:29 0° 141° (SE) 6,117 11.9 -20.8°
